Voltar ao catálogo

STARLINK-5854

AtivoComunicaçõesVLEO
NORAD 55923·PAYLOAD·🇺🇸 United States

Lançado Mar 17, 2023 de Vandenberg Space Force Base

Loading…

Próximas Passagens (próximas 24 horas)

TLE

AtualizadoSource: CelesTrak SupGP

Época: Sep 14, 2026, 21:22 UTC

1 55923C 23037K   26257.89076389 -.00029079  00000+0 -24366-2 0  2579
2 55923  70.0019 187.4112 0003022 263.9509 241.2652 14.98350750    13

Acompanhe STARLINK-5854 em tempo real com AllMySat

Download on the App Store